Waarnemingen

Advertentie
Mijn weer
Leuchars, Groot Brittannië (3171): temperatuur & dauwpunt: 15.08.2018 05:00:00 - 21.08.2018 05:00:00 (BST)Leuchars, Groot Brittannië (3171): temperatuur -20cm & temperatuur -100cm: 15.08.2018 05:00:00 - 21.08.2018 05:00:00 (BST)Leuchars, Groot Brittannië (3171): windsnelheid & windstoten: 15.08.2018 05:00:00 - 21.08.2018 05:00:00 (BST)Leuchars, Groot Brittannië (3171): windrichting: 15.08.2018 05:00:00 - 21.08.2018 05:00:00 (BST)Leuchars, Groot Brittannië (3171): luchtdruk: 15.08.2018 05:00:00 - 21.08.2018 05:00:00 (BST)Leuchars, Groot Brittannië (3171): zicht: 15.08.2018 05:00:00 - 21.08.2018 05:00:00 (BST)Leuchars, Groot Brittannië (3171): Zonneschijnduur: 15.08.2018 05:00:00 - 21.08.2018 05:00:00 (BST)Leuchars, Groot Brittannië (3171): neerslag: 15.08.2018 05:00:00 - 21.08.2018 05:00:00 (BST)
Datum & Tijd tt [°C] td [°C] tt -20cm [°C] tt -100cm [°C] ff [km/u] ff [kn] fx [km/u] fx [kn] dd ppp [hPa] vv [km] sd [min] rr [mm]
21.08.2018 05:00:00 13,4 13,3 - - 5 3 - - ONO 1018,8 2,7 0 0,2
21.08.2018 04:00:00 13,4 13,2 - - 5 3 - - ONO 1019,1 4,5 0 0,0
21.08.2018 03:00:00 13,6 13,0 - - 9 5 - - ONO 1019,4 9 0 0,0
21.08.2018 02:00:00 13,6 12,9 - - 9 5 - - O 1019,4 10 0 0,0
21.08.2018 01:00:00 13,6 12,9 - - 11 6 - - O 1019,6 10 - 0,0
21.08.2018 00:00:00 13,6 12,9 - - 11 6 - - O 1019,8 10 0 0,0
20.08.2018 23:00:00 13,5 12,7 - - 13 7 - - O 1019,8 10 0 0,0
20.08.2018 22:00:00 13,7 13,1 - - 11 6 - - O 1019,7 10 0 0,0
20.08.2018 21:00:00 14,2 13,1 - - 13 7 - - OZO 1019,4 10 0 0,0
20.08.2018 20:00:00 14,5 13,0 - - 13 7 - - O 1019,1 10 0 0,0
20.08.2018 19:00:00 15,0 12,0 - - 13 7 - - OZO 1018,9 10 0 0,0
20.08.2018 18:00:00 15,3 12,5 - - 18 10 - - OZO 1018,6 10 6 0,0
20.08.2018 17:00:00 16,2 11,8 - - 18 10 - - OZO 1018,4 45 30 0,0
20.08.2018 16:00:00 15,8 12,6 - - 18 10 - - OZO 1018,9 10 0 0,0
20.08.2018 15:00:00 15,9 12,9 - - 16 9 - - OZO 1018,9 10 6 0,0
20.08.2018 14:00:00 16,2 12,9 - - 15 8 - - OZO 1019,1 10 12 0,0
20.08.2018 13:00:00 16,6 12,1 - - 8 4 - - ZZO 1018,9 10 12 0,0
20.08.2018 12:00:00 15,1 12,0 - - 2 1 - - W 1018,9 10 0 0,0
20.08.2018 11:00:00 14,3 12,3 - - 11 6 - - W 1019,1 10 0 0,0
20.08.2018 10:00:00 14,1 12,8 13,9 14,2 8 4 - - W 1018,7 10 0 0,0
20.08.2018 09:00:00 13,8 13,0 - - 5 3 - - W 1018,6 10 0 0,0
20.08.2018 08:00:00 12,8 12,6 - - 9 5 - - WZW 1018,4 9 0 0,0
20.08.2018 07:00:00 12,5 12,4 - - 5 3 - - W 1018,3 9 0 0,0
20.08.2018 06:00:00 12,2 12,2 - - 8 4 - - W 1017,9 13 0 0,0
20.08.2018 05:00:00 12,2 12,2 - - 4 2 - - Z 1017,7 10 0 0,0
20.08.2018 04:00:00 11,5 11,5 - - 5 3 - - ZW 1018,2 10 0 0,0
20.08.2018 03:00:00 11,8 11,8 - - 8 4 - - W 1018,3 10 0 0,0
20.08.2018 02:00:00 11,6 11,6 - - 2 1 - - NNO 1018,0 9 0 0,2
20.08.2018 01:00:00 12,0 12,0 - - 5 3 - - N 1018,2 10 - 0,0
20.08.2018 00:00:00 11,8 11,7 - - 2 1 - - NNO 1018,1 10 0 0,0
19.08.2018 23:00:00 12,0 11,9 - - 2 1 - - ZO 1018,1 10 0 0,2
19.08.2018 22:00:00 12,1 11,9 - - 8 4 - - ZO 1018,0 3,1 0 0,2
19.08.2018 21:00:00 12,2 12,1 - - 11 6 - - ZO 1017,6 4,8 0 0,4
19.08.2018 20:00:00 12,3 12,1 - - 11 6 - - ZO 1017,2 2,4 0 0,6
19.08.2018 19:00:00 12,5 12,1 - - 11 6 - - OZO 1017,1 2,3 0 1,0
19.08.2018 18:00:00 13,3 11,8 - - 9 5 - - ZO 1016,8 3,3 0 0,2
19.08.2018 17:00:00 14,0 11,7 - - 15 8 - - OZO 1016,1 10 0 0,0
19.08.2018 16:00:00 14,1 11,1 - - 16 9 - - O 1015,7 24 0 0,0
19.08.2018 15:00:00 13,9 12,2 - - 15 8 - - O 1015,6 10 0 0,0
19.08.2018 14:00:00 14,5 12,8 - - 16 9 - - O 1015,0 10 0 0,0
19.08.2018 13:00:00 14,2 13,2 - - 13 7 - - ONO 1014,1 10 0 0,0
19.08.2018 12:00:00 14,2 13,5 - - 15 8 - - NO 1013,6 10 0 0,0
19.08.2018 11:00:00 13,6 13,2 - - 18 10 - - NO 1012,6 10 0 0,0
19.08.2018 10:00:00 13,4 13,2 14,0 14,2 21 11 - - NO 1012,2 3,5 0 0,4
19.08.2018 09:00:00 12,7 12,5 - - 22 12 - - NO 1011,8 3,5 0 0,2
19.08.2018 08:00:00 12,3 12,1 - - 22 12 - - NO 1011,4 10 0 0,6
19.08.2018 07:00:00 12,4 12,3 - - 22 12 - - ONO 1011,4 7 0 1,4
19.08.2018 06:00:00 13,3 13,3 - - 21 11 - - ONO 1011,3 6 0 1,4
19.08.2018 05:00:00 13,9 13,9 - - 15 8 - - O 1011,7 3,9 0 1,6
19.08.2018 04:00:00 14,1 14,0 - - 11 6 - - O 1012,3 5 0 1,6
19.08.2018 03:00:00 14,1 14,0 - - 5 3 - - ONO 1012,9 7 0 1,2
19.08.2018 02:00:00 14,4 14,2 - - 5 3 - - O 1013,2 10 0 0,8
19.08.2018 01:00:00 14,6 14,2 - - 2 1 - - Z 1013,6 9 - 0,8
19.08.2018 00:00:00 14,5 14,0 - - 5 3 - - W 1013,9 10 0 0,2
18.08.2018 23:00:00 14,8 14,0 - - 11 6 - - WZW 1013,9 10 0 0,2
18.08.2018 22:00:00 15,0 13,8 - - 11 6 - - WZW 1013,8 10 0 0,2
18.08.2018 21:00:00 16,0 12,9 - - 15 8 - - WZW 1013,5 10 0 0,0
18.08.2018 20:00:00 16,3 12,6 - - 22 12 - - WZW 1013,2 10 0 0,0
18.08.2018 19:00:00 16,9 12,4 - - 21 11 - - W 1012,7 10 0 0,0
18.08.2018 18:00:00 17,5 12,7 - - 28 15 - - W 1012,1 10 0 0,0
18.08.2018 17:00:00 18,3 13,1 - - 31 17 48 26 W 1012,1 10 18 0,0
18.08.2018 16:00:00 18,1 12,5 - - 37 20 55 30 W 1011,6 10 18 0,0
18.08.2018 15:00:00 19,4 11,7 - - 42 23 55 30 WZW 1011,0 10 48 0,0
18.08.2018 14:00:00 19,7 12,5 - - 35 19 54 29 W 1010,5 10 60 0,0
18.08.2018 13:00:00 19,2 11,8 - - 35 19 54 29 WZW 1010,3 10 48 0,0
18.08.2018 12:00:00 17,2 11,7 - - 35 19 55 30 WZW 1010,3 10 12 0,0
18.08.2018 11:00:00 16,6 11,7 - - 35 19 50 27 WZW 1009,5 10 6 0,0
18.08.2018 10:00:00 15,3 11,3 13,9 14,2 29 16 48 26 W 1009,2 10 0 0,0
18.08.2018 09:00:00 15,5 12,9 - - 31 17 48 26 WZW 1008,7 10 18 0,0
18.08.2018 08:00:00 14,5 12,9 - - 29 16 - - WZW 1008,6 10 0 0,0
18.08.2018 07:00:00 13,9 13,6 - - 16 9 - - WZW 1008,5 14 0 0,4
18.08.2018 06:00:00 14,5 12,6 - - 13 7 - - WZW 1008,4 4,0 0 0,0
18.08.2018 05:00:00 15,2 11,3 - - 26 14 46 25 WZW 1008,4 10 0 0,0
18.08.2018 04:00:00 14,9 11,3 - - 31 17 52 28 W 1008,7 10 0 0,0
18.08.2018 03:00:00 14,9 10,7 - - 34 18 48 26 WZW 1007,9 10 0 0,0
18.08.2018 02:00:00 14,5 10,8 - - 28 15 50 27 W 1008,0 10 0 0,0
18.08.2018 01:00:00 14,8 9,9 - - 34 18 - - W 1007,9 10 - 0,0
18.08.2018 00:00:00 14,5 10,8 - - 22 12 - - W 1008,3 40 0 0,0
17.08.2018 23:00:00 14,8 12,1 - - 26 14 52 28 WZW 1008,0 10 0 0,0
17.08.2018 22:00:00 14,8 12,8 - - 21 11 48 26 W 1008,1 10 0 0,0
17.08.2018 21:00:00 15,9 13,2 - - 26 14 - - WZW 1007,9 10 0 0,0
17.08.2018 20:00:00 16,3 13,5 - - 34 18 50 27 WZW 1007,4 10 0 0,0
17.08.2018 19:00:00 16,8 13,2 - - 39 21 50 27 WZW 1007,3 10 0 0,0
17.08.2018 18:00:00 17,1 13,1 - - 37 20 50 27 WZW 1007,6 10 0 0,0
17.08.2018 17:00:00 16,4 12,3 - - 35 19 50 27 WZW 1008,3 10 0 0,0
17.08.2018 16:00:00 16,7 11,8 - - 35 19 46 25 WZW 1008,8 10 0 0,0
17.08.2018 15:00:00 16,0 11,0 - - 29 16 46 25 WZW 1009,5 10 0 0,0
17.08.2018 14:00:00 16,4 10,5 - - 39 21 55 30 WZW 1010,1 10 12 0,0
17.08.2018 13:00:00 16,2 10,2 - - 37 20 48 26 WZW 1010,4 10 0 0,0
17.08.2018 12:00:00 15,8 10,2 - - 34 18 52 28 WZW 1010,7 10 0 0,0
17.08.2018 11:00:00 14,8 10,2 - - 35 19 46 25 WZW 1011,1 10 0 0,0
17.08.2018 10:00:00 13,8 10,0 14,0 14,2 29 16 - - W 1011,2 10 0 0,0
17.08.2018 09:00:00 13,2 10,1 - - 22 12 - - WZW 1010,9 40 0 0,0
17.08.2018 08:00:00 12,8 10,1 - - 26 14 - - WZW 1010,6 35 12 0,0
17.08.2018 07:00:00 12,6 10,3 - - 26 14 - - WZW 1010,3 10 24 0,0
17.08.2018 06:00:00 10,9 9,6 - - 15 8 - - WZW 1010,0 10 0 0,0
17.08.2018 05:00:00 10,5 9,4 - - 18 10 - - W 1009,5 10 0 0,0
17.08.2018 04:00:00 11,0 9,5 - - 16 9 - - WZW 1009,6 10 0 0,0
17.08.2018 03:00:00 10,8 9,2 - - 15 8 - - WZW 1009,5 10 0 0,0
17.08.2018 02:00:00 11,8 10,0 - - 15 8 - - W 1009,0 10 0 0,0
17.08.2018 01:00:00 11,3 9,4 - - 11 6 - - WZW 1009,2 10 - 0,0
17.08.2018 00:00:00 11,8 9,6 - - 24 13 - - WZW 1008,7 10 0 0,0
16.08.2018 23:00:00 12,0 9,5 - - 13 7 - - W 1008,4 10 0 0,0
16.08.2018 22:00:00 12,3 9,3 - - 15 8 - - W 1007,9 10 0 0,0
16.08.2018 21:00:00 13,7 8,8 - - 16 9 - - W 1007,4 10 6 0,0
16.08.2018 20:00:00 15,7 8,8 - - 22 12 - - W 1006,6 10 48 0,0
16.08.2018 19:00:00 16,9 8,9 - - 31 17 46 25 W 1005,9 10 54 0,0
16.08.2018 18:00:00 16,1 9,9 - - 34 18 52 28 W 1005,7 10 48 0,0
16.08.2018 17:00:00 15,2 12,0 - - 26 14 50 27 W 1005,6 10 24 0,6
16.08.2018 16:00:00 17,4 10,3 - - 41 22 61 33 WZW 1005,1 10 42 0,0
16.08.2018 15:00:00 17,7 9,6 - - 34 18 50 27 WZW 1004,8 10 48 0,0
16.08.2018 14:00:00 17,9 10,5 - - 35 19 48 26 WZW 1004,6 10 54 0,0
16.08.2018 13:00:00 16,8 10,4 - - 24 13 48 26 W 1004,5 10 36 0,0
16.08.2018 12:00:00 16,2 10,1 - - 28 15 - - WZW 1004,5 10 36 0,0
16.08.2018 11:00:00 17,3 10,0 - - 29 16 - - WZW 1004,6 10 54 0,0
16.08.2018 10:00:00 15,6 10,1 14,2 14,2 28 15 - - WZW 1004,5 10 54 0,0
16.08.2018 09:00:00 14,4 10,4 - - 24 13 - - ZW 1004,5 10 42 0,0
16.08.2018 08:00:00 13,0 10,2 - - 29 16 - - ZW 1004,2 10 60 0,0
16.08.2018 07:00:00 12,0 10,0 - - 26 14 - - WZW 1004,1 10 12 0,0
16.08.2018 06:00:00 11,0 10,3 - - 13 7 - - W 1003,9 10 0 0,0
16.08.2018 05:00:00 11,0 9,7 - - 13 7 - - WZW 1003,8 10 0 0,0
16.08.2018 04:00:00 13,0 9,9 - - 15 8 - - WZW 1003,6 10 0 0,0
16.08.2018 03:00:00 14,5 11,7 - - 28 15 - - WZW 1003,8 10 0 0,0
16.08.2018 02:00:00 15,2 11,8 - - 15 8 - - W 1003,9 10 0 0,0
16.08.2018 01:00:00 16,0 11,1 - - 13 7 - - W 1004,2 10 - 0,0
16.08.2018 00:00:00 15,3 11,5 - - 13 7 - - WZW 1004,1 10 0 0,0
15.08.2018 23:00:00 15,4 11,9 - - 9 5 - - W 1004,2 10 0 0,0
15.08.2018 22:00:00 15,5 12,8 - - 18 10 - - WZW 1004,4 10 0 0,0
15.08.2018 21:00:00 16,0 12,5 - - 15 8 - - WZW 1004,8 10 0 0,0
15.08.2018 20:00:00 16,8 11,8 - - 18 10 - - WZW 1004,8 10 0 0,0
15.08.2018 19:00:00 18,1 11,2 - - 13 7 48 26 W 1005,0 10 0 0,0
15.08.2018 18:00:00 19,0 10,8 - - 37 20 57 31 W 1005,4 10 30 0,0
15.08.2018 17:00:00 20,5 9,3 - - 41 22 68 37 W 1005,7 10 54 0,0
15.08.2018 16:00:00 21,1 10,5 - - 42 23 63 34 WZW 1005,7 10 60 0,0
15.08.2018 15:00:00 22,0 12,2 - - 37 20 55 30 W 1005,9 35 48 0,0
15.08.2018 14:00:00 21,6 13,0 - - 39 21 55 30 WZW 1005,8 45 60 0,0
15.08.2018 13:00:00 20,5 15,9 - - 34 18 46 25 WZW 1006,3 10 42 0,0
15.08.2018 12:00:00 19,3 15,8 - - 28 15 - - WZW 1006,4 35 18 0,0
15.08.2018 11:00:00 19,0 16,5 - - 22 12 - - WZW 1006,6 10 0 0,0
15.08.2018 10:00:00 18,6 16,3 14,0 14,2 24 13 - - WZW 1006,9 10 12 0,0
15.08.2018 09:00:00 17,3 16,2 - - 18 10 - - WZW 1007,4 10 0 0,0
15.08.2018 08:00:00 16,5 15,8 - - 18 10 - - ZW 1007,3 10 0 0,4
15.08.2018 07:00:00 17,0 15,7 - - 24 13 - - WZW 1007,5 10 0 0,0
15.08.2018 06:00:00 16,8 15,8 - - 26 14 - - WZW 1007,4 10 0 0,0
15.08.2018 05:00:00 16,1 15,9 - - 18 10 - - WZW 1007,7 50 0 0,0

tt = temperatuur
td = dauwpunt
tt -20cm = temperatuur -20cm
tt -100cm = temperatuur -100cm
ff = windsnelheid
fx = windstoten
dd = windrichting
ppp = luchtdruk
vv = zicht
sd = Zonneschijnduur
rr = neerslag

Weerstations in de omgeving